Weather History for KBZN - March, 2014

Change the Weather History Date:

Tuesday, March 4, 2014

  Actual Average Record
Temperature  
Mean Temperature 35 °F 32 °F  
Max Temperature 45 °F 45 °F 68 °F (1987)
Min Temperature 24 °F 19 °F -31 °F (1989)
Degree Days  
Heating Degree Days 30 33  
Month to date heating degree days 195 134  
Since 1 July heating degree days 6210 5714  
Cooling Degree Days 0 0  
Month to date cooling degree days 0 0  
Year to date cooling degree days 0 0  
Moisture  
Dew Point 27 °F    
Average Humidity 67    
Maximum Humidity 92    
Minimum Humidity 41    
Precipitation  
Precipitation 0.00 in 0.02 in 0.45 in (2009)
Month to date precipitation 0.05 0.09  
Year to date precipitation 1.00 1.00  
Snow  
Snow 0.00 in 0.20 in 3.10 in (1980)
Month to date snowfall 2.0 0.9  
Since 1 July snowfall 27.0 23.2  
Snow Depth 5.00 in    
Sea Level Pressure  
Sea Level Pressure 29.97 in    
Wind  
Wind Speed 6 mph (SSE)    
Max Wind Speed 16 mph    
Max Gust Speed 20 mph    
Visibility 10 miles    
Events      
T = Trace of Precipitation, MM = Missing Value Source: NWS Daily Summary

Daily Weather History Graph

Daily Weather History Graph

Search for Another Location

Airport or City:

Trip Planner

Search our weather history database for the weather conditions in past years. The results will help you decide how hot, cold, wet, or windy it might be!

Date:

Astronomy

Mar. 04, 2014 Rise Set
Actual Time 6:57 AM MST 6:15 PM MST
Civil Twilight 6:27 AM MST 6:45 PM MST
Nautical Twilight 5:53 AM MST 7:19 PM MST
Astronomical Twilight 5:18 AM MST 7:54 PM MST
Moon 8:33 AM MST (3/4) 10:41 PM MST (3/4)
Length of Visible Light 12h 17m
Length of Day
11h 17m
Waxing Crescent, 15% of the Moon is Illuminated
Mar 4
Waxing Crescent
Mar 8
First Quarter
Mar 16
Full
Mar 23
Last Quarter
Mar 30
New

Hourly Weather History & Observations

Time (MST) Temp. Windchill Dew Point Humidity Pressure Visibility Wind Dir Wind Speed Gust Speed Precip Events Conditions
12:56 AM 36.0 °F 27.5 °F 32.0 °F 86% 29.87 in 10.0 mi SE 12.7 mph - N/A   Overcast
1:56 AM 36.0 °F 29.6 °F 32.0 °F 86% 29.86 in 10.0 mi SE 8.1 mph - N/A   Overcast
2:56 AM 35.1 °F - 30.9 °F 85% 29.86 in 10.0 mi Calm Calm - N/A   Mostly Cloudy
3:56 AM 34.0 °F 28.8 °F 30.9 °F 89% 29.88 in 10.0 mi WSW 5.8 mph - N/A   Mostly Cloudy
4:56 AM 32.0 °F 28.7 °F 30.0 °F 92% 29.90 in 10.0 mi ENE 3.5 mph - N/A   Mostly Cloudy
5:56 AM 32.0 °F - 30.0 °F 92% 29.90 in 10.0 mi Calm Calm - N/A   Clear
6:56 AM 28.0 °F 20.8 °F 26.1 °F 92% 29.95 in 10.0 mi SE 6.9 mph - N/A   Mostly Cloudy
7:56 AM 25.0 °F 17.1 °F 23.0 °F 92% 29.98 in 10.0 mi ESE 6.9 mph - N/A   Clear
8:56 AM 28.9 °F 21.9 °F 25.0 °F 85% 29.97 in 10.0 mi SSE 6.9 mph - N/A   Clear
9:56 AM 34.0 °F 28.8 °F 28.0 °F 79% 29.98 in 10.0 mi SSE 5.8 mph - N/A   Overcast
10:56 AM 37.9 °F 32.7 °F 30.0 °F 73% 29.97 in 10.0 mi ESE 6.9 mph - N/A   Mostly Cloudy
11:56 AM 42.1 °F 38.4 °F 26.1 °F 53% 29.96 in 10.0 mi South 5.8 mph - N/A   Clear
12:56 PM 44.1 °F 41.5 °F 26.1 °F 49% 29.95 in 10.0 mi ENE 4.6 mph - N/A   Clear
1:56 PM 44.1 °F - 23.0 °F 43% 29.95 in 10.0 mi Calm Calm - N/A   Scattered Clouds
2:56 PM 43.0 °F 39.5 °F 25.0 °F 49% 29.96 in 10.0 mi WSW 5.8 mph - N/A   Clear
3:56 PM 42.1 °F 34.9 °F 25.0 °F 51% 29.99 in 10.0 mi WSW 13.8 mph - N/A   Mostly Cloudy
4:56 PM 41.0 °F 34.7 °F 26.1 °F 55% 30.00 in 10.0 mi SW 10.4 mph - N/A   Overcast
5:56 PM 39.0 °F 36.8 °F 27.0 °F 62% 30.01 in 10.0 mi Variable 3.5 mph - N/A   Mostly Cloudy
6:56 PM 37.0 °F 31.0 °F 26.1 °F 65% 30.04 in 10.0 mi SE 8.1 mph - N/A   Scattered Clouds
7:56 PM 37.0 °F 32.4 °F 25.0 °F 62% 30.06 in 10.0 mi South 5.8 mph - N/A   Scattered Clouds
8:56 PM 35.1 °F - 25.0 °F 67% 30.06 in 10.0 mi Calm Calm - N/A   Clear
9:56 PM 34.0 °F 28.8 °F 25.0 °F 70% 30.05 in 10.0 mi ESE 5.8 mph - N/A   Scattered Clouds
10:56 PM 30.9 °F 24.3 °F 23.0 °F 72% 30.05 in 10.0 mi SSE 6.9 mph - N/A   Clear
11:56 PM 28.0 °F 22.8 °F 19.9 °F 72% 30.04 in 10.0 mi ESE 4.6 mph - N/A   Clear